Home   Weather   Bielefeld   Past weeks

Flag for Germany Past Weather in Bielefeld, North Rhine-Westphalia, Germany — Yesterday and Last 2 Weeks

Now
43 °F

Scattered clouds.


Feels Like: 34 °F
Forecast: 33 / 42 °F
Wind: 18 mph from Northwest

Location: Bueckeburg

Current Time: Feb 24, 2017 at 1:49:32 pm

Latest Report: Feb 24, 2017 at 12:20 pm


Visibility: N/A

Pressure: 29.83 "Hg

Humidity: 66%

Dew Point: 32 °F

Location of BielefeldLocation

Past Weather in Bielefeld — Graph

°F

Bielefeld Temperature Yesterday

Maximum temperature yesterday: 50 °F (at 5:20 pm)
Minimum temperature yesterday: 43 °F (at 8:20 am)
Average temperature yesterday: 46 °F

High & Low Weather Summary for the Past Weeks

 TemperatureHumidityPressure
High54 °F (Feb 15, 3:20 pm)100% (Feb 17, 11:20 am)30.54 "Hg (Feb 17, 11:20 am)
Low23 °F (Feb 14, 4:20 am)41% (Feb 15, 3:20 pm)29.09 "Hg (Feb 23, 7:37 pm)
Average40 °F82%30.10 "Hg
* Reported Feb 9 12:20 pm — Feb 24 12:20 pm, Bielefeld, Weather by CustomWeather, © 2017

Note: Actual official high and low records may vary slightly from our data, if they occured in-between our weather recording intervals... More about our weather records

Advertising

Bielefeld Weather History for the Previous 24 Hours

Scroll right to see more
 ConditionsComfort  
Time TempWeatherWind HumidityBarometerVisibility
12:20 pm
Fri, Feb 24
43 °FScattered clouds.18 mph66%29.83 "HgN/A
11:50 am41 °FScattered clouds.15 mph70%29.83 "HgN/A
11:20 am37 °FScattered clouds.15 mph87%29.80 "HgN/A
11:03 am39 °FSprinkles. Broken clouds.16 mph81%29.80 "HgN/A
10:20 am37 °FBroken clouds.15 mph87%29.77 "HgN/A
10:03 am37 °FScattered showers. Broken clouds.14 mph87%29.74 "HgN/A
9:30 am37 °FSnow flurries. Partly sunny.16 mph87%29.71 "Hg2 mi
8:47 am37 °FScattered showers. Broken clouds.18 mph87%29.68 "Hg5 mi
8:20 am37 °FSnow flurries. Broken clouds.26 mph81%29.65 "Hg3 mi
7:20 am39 °FPassing clouds.22 mph75%29.59 "HgN/A
6:20 am39 °FPassing clouds.24 mph75%29.56 "HgN/A
5:20 am37 °FPassing clouds.22 mph87%29.50 "HgN/A
4:20 am37 °FChilly.24 mph87%29.45 "Hg2 mi
3:20 am39 °FChilly.26 mph87%29.39 "Hg2 mi
2:20 am39 °FChilly.30 mph87%29.27 "Hg1 mi
1:20 am41 °FQuite cool.23 mph87%29.18 "Hg1 mi
12:20 am41 °FQuite cool.26 mph87%29.15 "Hg1 mi
11:20 pm
Thu, Feb 23
43 °FQuite cool.28 mph81%29.12 "Hg2 mi
10:20 pm45 °FQuite cool.23 mph76%29.12 "Hg2 mi
9:20 pm45 °FQuite cool.26 mph81%29.09 "Hg1 mi
8:20 pm45 °FQuite cool.31 mph76%29.09 "Hg2 mi
7:37 pm45 °FSprinkles. Partly cloudy.37 mph76%29.09 "Hg5 mi
6:20 pm46 °FSprinkles. Passing clouds.23 mph82%29.12 "HgN/A
5:43 pm48 °FThunderstorms. Broken clouds.22 mph76%29.12 "HgN/A
5:20 pm50 °FBroken clouds.28 mph71%29.12 "HgN/A
4:53 pm48 °FBroken clouds.30 mph82%29.12 "HgN/A
3:20 pm48 °FSprinkles. Broken clouds.29 mph87%29.18 "HgN/A
2:20 pm48 °FPartly sunny.22 mph87%29.21 "HgN/A
1:57 pm48 °FDrizzle. Partly sunny.21 mph87%29.27 "HgN/A
1:20 pm48 °FDrizzle. Partly sunny.22 mph87%29.30 "HgN/A
Weather by CustomWeather, © 2017

See weather overviewHow to use our weather pages